Location: Coyote Lake
(37.1190°N, 121.5480°W)
Time: 04:26:46
(UTC-08:00)

Tiangong 2 - Visible Passes

Search period start: 19 November 2017 00:00
Search period end: 29 November 2017 00:00
Orbit: 386 x 391 km, 42.8° (Epoch: 18 November)

Date Brightness Start Highest point End Pass type
(mag) Time Alt. Az. Time Alt. Az. Time Alt. Az.
23 Nov 4.9 06:08:51 10° SE 06:08:56 10° SE 06:09:01 10° SE visible
25 Nov 3.8 05:46:41 10° SSW 05:49:06 20° SE 05:51:33 10° E visible
26 Nov 4.3 04:50:13 10° SSE 04:51:06 11° SE 04:52:00 10° ESE visible
26 Nov 1.3 06:24:19 10° WSW 06:27:29 73° SSE 06:30:42 10° ENE visible
27 Nov 2.3 05:27:33 20° SSW 05:29:20 39° SSE 05:32:21 10° ENE visible
28 Nov 4.2 04:32:47 15° ESE 04:32:47 15° ESE 04:33:45 10° E visible
28 Nov 1.1 06:05:07 13° WSW 06:07:51 63° NNW 06:11:02 10° ENE visible
